Regional Weather Roundup
Issued by NWS

Home | Current Version | Previous Version | Text Only | Print | Product List | Glossary On
Versions: 1 2 3 4 5 6 7 8 9 10 11 12 13 14 15 16 17 18 19 20 21 22 23 24 25 26 27 28 29 30 31 32 33 34 35 36 37 38 39 40 41 42 43 44 45 46 47 48 49 50
000
ASUS44 KOUN 290010
RWROK

WEATHER ROUNDUP FOR OKLAHOMA
NATIONAL WEATHER SERVICE NORMAN OK
700 PM CDT FRI APR 28 2017

NOTE: "FAIR" INDICATES FEW OR NO CLOUDS BELOW 12,000 FEET WITH NO
      SIGNIFICANT WEATHER AND/OR OBSTRUCTIONS TO VISIBILITY.

OKZ001>007-009>012-014-015-017-290100-
NORTHWEST OKLAHOMA AND THE PANHANDLE

CITY           SKY/WX    TMP DP  RH WIND       PRES   REMARKS
GAGE           CLOUDY    68  42  38 NE13      29.67S
6HR MIN TEMP:  68; 6HR MAX TEMP:  74;

GUYMON         LGT RAIN  48  46  93 NW14G22   29.78R
ENID/WOODRING  PTSUNNY   72  57  60 N12       29.67R
$$

OKZ016-021>023-033>039-044-045-290100-
SOUTHWEST OKLAHOMA

CITY           SKY/WX    TMP DP  RH WIND       PRES   REMARKS
LAWTON/REGL    CLOUDY    79  64  60 E7        29.60R
6HR MIN TEMP:  79; 6HR MAX TEMP:  82;

LAWTON/FT SILL CLOUDY    77  65  66 E8        29.59R
FREDERICK      CLOUDY    81  64  56 E14       29.55S
CLINTON        CLOUDY    73  52  47 E14       29.64F
HOBART         MOSUNNY   77  59  53 SE12      29.62R
ALTUS AFB      SUNNY     79  56  46 E14       29.59R
$$

OKZ018>020-024>031-290100-
CENTRAL OKLAHOMA

CITY           SKY/WX    TMP DP  RH WIND       PRES   REMARKS
OKLAHOMA CITY  CLOUDY    74  60  61 E8        29.64R
6HR MIN TEMP:  74; 6HR MAX TEMP:  78;

OKC/WILEY POST CLOUDY    76  61  59 E10       29.64R
OKC/TINKER AFB CLOUDY    74  62  65 E6        29.63R
GUTHRIE        CLOUDY    75  60  59 E8        29.65R
$$

OKZ008-013-054>072-290100-
NORTHEAST OKLAHOMA

CITY           SKY/WX    TMP DP  RH WIND       PRES   REMARKS
TULSA          CLOUDY    73  64  73 E7        29.66R
6HR MIN TEMP:  71; 6HR MAX TEMP:  76;

TULSA/JONES    CLOUDY    75  61  61 SE6       29.67R
PONCA CITY     CLOUDY    71  55  56 E8        29.69R
BARTLESVILLE   CLOUDY    71  59  65 E6        29.70R
MUSKOGEE       CLOUDY    73  66  78 E7        29.68R
$$

OKZ032-040>043-046>053-073>077-290100-
SOUTH CENTRAL/SOUTHEAST OKLAHOMA

CITY           SKY/WX    TMP DP  RH WIND       PRES   REMARKS
ARDMORE/DWNTWN CLOUDY    77  66  69 SE3       29.59S
MCALESTER      CLOUDY    78  69  73 E3        29.64R
$$





USA.gov is the U.S. government's official web portal to all federal, state and local government web resources and services.